[[{"header":{"parameterUnit":"m.s-1","parameterCategory":1,"la1":30.2991,"la2":30.254,"lo1":-89.0895,"lo2":-89.0444,"dy":0.0017,"dx":0.0017,"nx":28,"ny":28,"refTime":"2024-05-22T21:00:00:Z","depth":0,"parameterNumber":2,"parameterNumberName":"U-component_of_WINDS"},"data":[0,0,0,0,0,0,0,0,0,0,0,0,0,0,0,0,0,0,0,0,0,0,0,0,0,0,0,0,0,0,0,0,0,0,0,0,0,0,0,0,0,0,0,0,0,0,0,0,0,0,0,0,0,0,0,0,0,0,-2.0396,-2.0396,0,-2.0405,-2.0405,-2.0405,-2.038,-2.038,-2.0379,-2.0378,-2.0387,-2.0388,-2.0389,0,0,0,0,0,0,0,0,0,0,0,0,0,-2.0359,-2.0359,-2.0396,-2.0396,-2.0396,-2.0405,-2.0405,-2.0405,-2.0381,-2.038,-2.0379,-2.0378,-2.0387,-2.0388,-2.0389,0,0,0,0,0,0,0,0,0,0,0,0,0,-2.0372,-2.036,-2.0396,-2.0385,-2.0384,-2.0405,-2.0405,-2.0405,-2.0381,-2.038,-2.0378,-2.0377,-2.0386,-2.0387,-2.0389,-2.042,0,0,-2.0393,-2.0394,0,0,0,0,0,0,0,0,-2.0371,-2.0373,-2.0386,-2.0386,-2.0385,-2.039,-2.0395,-2.041,-2.0381,-2.0382,-2.0378,-2.0377,-2.0389,-2.039,-2.0394,-2.0421,-2.0421,-2.0393,-2.0394,-2.0395,-2.0395,0,0,0,0,0,0,0,-2.037,-2.0373,-2.0399,-2.0387,-2.0386,-2.038,-2.0381,-2.0398,-2.0392,-2.0382,-2.038,-2.0381,-2.0388,-2.0393,-2.0394,-2.0421,-2.0393,-2.0394,-2.0395,-2.0396,-2.0475,-2.0476,0,0,0,0,0,0,-2.0371,-2.0372,-2.0399,-2.04,-2.0375,-2.0382,-2.0382,-2.039,-2.0391,-2.0391,-2.0382,-2.038,-2.0391,-2.0393,-2.0394,-2.0432,-2.0395,-2.0396,-2.0397,-2.0474,-2.0475,-2.0477,0,0,0,0,0,0,-2.037,-2.0373,-2.0399,-2.0385,-2.0388,-2.0383,-2.0392,-2.039,-2.0395,-2.0392,-2.0391,-2.0388,-2.039,-2.0392,-2.0414,-2.0431,-2.0397,-2.0398,-2.0472,-2.0474,-2.0476,-2.0506,0,0,0,0,0,0,-2.0369,-2.0373,-2.0385,-2.0386,-2.0389,-2.0418,-2.0393,-2.0391,-2.0398,-2.0395,-2.0397,-2.0396,-2.0389,-2.0412,-2.0416,-2.0433,-2.0399,-2.0471,-2.0473,-2.0475,-2.0503,-2.0509,-2.0513,0,0,0,0,0,-2.0368,-2.0393,-2.0385,-2.0389,-2.0403,-2.0419,-2.0421,-2.0413,-2.0399,-2.0411,-2.0409,-2.0396,-2.0429,-2.0415,-2.0418,-2.0436,-2.047,-2.0472,-2.0475,-2.0501,-2.0508,-2.0513,0,0,0,0,0,0,-2.0393,-2.0392,-2.0385,-2.041,-2.0415,-2.0415,-2.043,-2.042,-2.0428,-2.0425,-2.0415,-2.0416,-2.044,-2.044,-2.0424,-2.0467,-2.0447,-2.0451,-2.0466,-2.0472,-2.0477,-2.0476,-2.04,0,0,0,0,0,-2.0402,-2.0415,-2.0414,-2.0437,-2.0439,-2.0434,-2.0441,-2.0434,-2.0439,-2.0441,-2.044,-2.0445,-2.0457,-2.0464,-2.0475,-2.0504,-2.0504,-2.0518,-2.0523,-2.0527,-2.053,-2.0546,-2.0552,-2.0486,-2.0486,-2.0486,0,0,-2.0419,-2.0421,-2.043,-2.0442,-2.0445,-2.0458,-2.0436,-2.0451,-2.0462,-2.0443,-2.0463,-2.0464,-2.0469,-2.0494,-2.0506,-2.0496,-2.0549,-2.0531,-2.0534,-2.0535,-2.055,-2.0556,-2.0562,-2.0488,-2.0488,-2.0487,0,0,-2.0459,-2.0461,-2.0481,-2.0485,-2.049,-2.0486,-2.0491,-2.0493,-2.0493,-2.0514,-2.05,-2.0512,-2.0532,-2.0536,-2.0541,-2.0584,-2.0573,-2.0588,-2.0613,-2.0629,-2.0634,-2.0639,-2.0654,-2.066,-2.0591,-2.0592,-2.0592,0,-2.048,-2.0501,-2.0492,-2.0509,-2.0515,-2.05,-2.052,-2.0524,-2.0532,-2.0536,-2.0525,-2.0551,-2.0553,-2.058,-2.059,-2.0595,-2.06,-2.0587,-2.0634,-2.0639,-2.0643,-2.0658,-2.0664,-2.0593,-2.0593,-2.0593,-2.0593,0,-2.0527,-2.0541,-2.0557,-2.0566,-2.0574,-2.0592,-2.0587,-2.0596,-2.0589,-2.0587,-2.0609,-2.0611,-2.0622,-2.0629,-2.0622,-2.0655,-2.0648,-2.0636,-2.0615,-2.0651,-2.0665,-2.067,-2.0596,-2.0595,-2.0595,-2.0594,0,0,-2.0581,-2.0586,-2.0592,-2.0596,-2.0601,-2.0613,-2.0631,-2.0642,-2.065,-2.0657,-2.0672,-2.069,-2.0679,-2.0684,-2.0678,-2.0692,-2.0727,-2.0678,-2.0678,-2.0687,-2.0764,-2.0773,-2.0779,-2.072,-2.0721,-2.0722,-2.0763,0,-2.062,-2.0651,-2.0645,-2.0675,-2.0689,-2.0675,-2.0691,-2.0697,-2.0696,-2.0707,-2.0706,-2.072,-2.0704,-2.0707,-2.0721,-2.072,-2.0742,-2.0717,-2.0734,-2.0734,-2.0732,-2.0786,-2.0796,-2.0835,-2.0769,-2.077,-2.077,0,-2.0669,-2.0678,-2.0711,-2.0715,-2.072,-2.0735,-2.0745,-2.0756,-2.0762,-2.0761,-2.0768,-2.0759,-2.0778,-2.0758,-2.0784,-2.0767,-2.0773,-2.0774,-2.0776,-2.0776,-2.0754,-2.0788,-2.0847,-2.0853,-2.0778,-2.0778,-2.0777,0,-2.0706,-2.0726,-2.0748,-2.0752,-2.0758,-2.0768,-2.0771,-2.0776,-2.0783,-2.0793,-2.0797,-2.0809,-2.0815,-2.0824,-2.0819,-2.0805,-2.0845,-2.0825,-2.0845,-2.0845,-2.0853,-2.0853,-2.0914,-2.0858,-2.0858,-2.0858,-2.0858,0,-2.075,-2.077,-2.0765,-2.0778,-2.0801,-2.0794,-2.0817,-2.0818,-2.0822,-2.0836,-2.0825,-2.0838,-2.0831,-2.0844,-2.084,-2.0862,-2.0865,-2.0865,-2.0863,-2.0865,-2.0865,-2.0869,-2.0866,-2.086,-2.0859,-2.0859,-2.0859,0,-2.0794,-2.0791,-2.0814,-2.0818,-2.0819,-2.0836,-2.0839,-2.0852,-2.0851,-2.0868,-2.0872,-2.087,-2.0885,-2.0881,-2.0897,-2.0895,-2.0923,-2.0918,-2.0921,-2.0919,-2.0939,-2.0937,-2.1004,-2.1013,-2.0952,-2.0953,-2.0953,0,-2.0822,-2.0837,-2.0843,-2.0851,-2.0855,-2.0869,-2.0877,-2.0871,-2.088,-2.0889,-2.0901,-2.0914,-2.0925,-2.0949,-2.0949,-2.0961,-2.0957,-2.098,-2.0959,-2.0961,-2.0957,-2.0956,-2.0958,-2.0984,-2.0984,-2.0985,-2.0985,0,-2.0872,-2.087,-2.0882,-2.0894,-2.0904,-2.0913,-2.0921,-2.0929,-2.0924,-2.0934,-2.0949,-2.0958,-2.0974,-2.0988,-2.1,-2.1002,-2.0993,-2.0992,-2.0997,-2.0999,-2.1,-2.1,-2.0932,-2.099,-2.099,-2.099,-2.0989,-2.0989,-2.0909,-2.0922,-2.0929,-2.0942,-2.0948,-2.0956,-2.0969,-2.097,-2.0982,-2.0995,-2.0991,-2.1009,-2.1015,-2.103,-2.1034,-2.1048,-2.1039,-2.1047,-2.1049,-2.1051,-2.1053,-2.0999,-2.105,-2.105,-2.105,-2.105,-2.1049,0,-2.0959,-2.0962,-2.0975,-2.0987,-2.0998,-2.0989,-2.0998,-2.1008,-2.1024,-2.1031,-2.1042,-2.1059,-2.1073,-2.1075,-2.1088,-2.1099,-2.1095,-2.1102,-2.1101,-2.1102,-2.106,-2.1054,-2.1105,-2.1105,-2.1105,-2.1105,-2.1105,-2.1105,-2.0986,-2.1008,-2.1007,-2.1033,-2.1036,-2.1053,-2.1059,-2.1067,-2.1072,-2.1093,-2.1104,-2.1106,-2.1111,-2.1124,-2.1137,-2.1137,-2.1142,-2.1151,-2.115,-2.111,-2.1105,-2.11,-2.1094,-2.1152,-2.1153,-2.1191,-2.1191,-2.1191]},{"header":{"parameterUnit":"m.s-1","parameterCategory":1,"la1":30.2991,"la2":30.254,"lo1":-89.0895,"lo2":-89.0444,"dy":0.0017,"dx":0.0017,"nx":28,"ny":28,"refTime":"2024-05-22T21:00:00:Z","depth":0,"parameterNumber":3,"parameterNumberName":"V-component_of_WINDS"},"data":[0,0,0,0,0,0,0,0,0,0,0,0,0,0,0,0,0,0,0,0,0,0,0,0,0,0,0,0,0,0,0,0,0,0,0,0,0,0,0,0,0,0,0,0,0,0,0,0,0,0,0,0,0,0,0,0,0,0,5.4734,5.4735,0,5.4757,5.4758,5.4758,5.4715,5.4713,5.4712,5.4711,5.4731,5.4733,5.4735,0,0,0,0,0,0,0,0,0,0,0,0,0,5.4651,5.4653,5.4734,5.4735,5.4735,5.4757,5.4758,5.4758,5.4715,5.4713,5.4712,5.471,5.4731,5.4733,5.4735,0,0,0,0,0,0,0,0,0,0,0,0,0,5.4682,5.4654,5.4734,5.4716,5.4715,5.4757,5.4758,5.4758,5.4716,5.4713,5.4711,5.4709,5.473,5.4733,5.4736,5.4796,0,0,5.4744,5.4745,0,0,0,0,0,0,0,0,5.468,5.4685,5.4719,5.4718,5.4716,5.4731,5.4736,5.4771,5.4716,5.4715,5.4711,5.4708,5.4733,5.4735,5.4744,5.4797,5.4798,5.4744,5.4746,5.4747,5.4748,0,0,0,0,0,0,0,5.4678,5.4684,5.4743,5.4719,5.4718,5.4706,5.4709,5.4742,5.4736,5.4715,5.4712,5.4716,5.4732,5.4742,5.4744,5.4798,5.4744,5.4747,5.4749,5.475,5.4902,5.4904,0,0,0,0,0,0,5.4679,5.4682,5.4743,5.4744,5.4693,5.471,5.4712,5.4728,5.4735,5.4734,5.4717,5.4713,5.4738,5.4741,5.4745,5.4817,5.4747,5.475,5.4752,5.4899,5.4902,5.4905,0,0,0,0,0,0,5.4677,5.4685,5.4742,5.4713,5.4719,5.4713,5.4732,5.473,5.474,5.4737,5.4735,5.4729,5.4736,5.4741,5.4784,5.4817,5.4751,5.4754,5.4897,5.49,5.4904,5.496,0,0,0,0,0,0,5.4675,5.4684,5.4707,5.4713,5.4721,5.4781,5.4734,5.4732,5.4745,5.474,5.4747,5.4746,5.4735,5.478,5.4787,5.4819,5.4756,5.4894,5.4898,5.4902,5.4955,5.4965,5.4974,0,0,0,0,0,5.4672,5.4721,5.4709,5.4716,5.475,5.4783,5.4787,5.4774,5.4748,5.4771,5.4769,5.4746,5.4812,5.4785,5.4792,5.4826,5.4892,5.4897,5.4902,5.4951,5.4963,5.4973,0,0,0,0,0,0,5.4718,5.4722,5.4708,5.4761,5.4772,5.4776,5.4804,5.4787,5.4805,5.4799,5.4781,5.4783,5.483,5.4832,5.4801,5.4885,5.4847,5.4854,5.4882,5.4894,5.4903,5.4901,5.4758,0,0,0,0,0,5.4735,5.4762,5.4764,5.481,5.4817,5.481,5.4824,5.4813,5.4823,5.4828,5.4829,5.4839,5.4862,5.4878,5.4899,5.4955,5.4956,5.4982,5.4991,5.4999,5.5005,5.5036,5.5048,5.4922,5.4922,5.4922,0,0,5.4768,5.4774,5.4792,5.482,5.4827,5.4856,5.4814,5.4845,5.4866,5.4832,5.4873,5.4875,5.4885,5.4935,5.4957,5.4938,5.504,5.5006,5.5012,5.5014,5.5043,5.5055,5.5066,5.4926,5.4925,5.4925,0,0,5.4845,5.4852,5.4892,5.4901,5.4913,5.4909,5.4918,5.4925,5.4925,5.4966,5.4942,5.4966,5.5006,5.5015,5.5024,5.5106,5.5086,5.5113,5.5161,5.5192,5.5201,5.521,5.524,5.5251,5.512,5.512,5.512,0,5.4886,5.4929,5.4915,5.4949,5.4962,5.4933,5.4974,5.4982,5.5001,5.501,5.4989,5.504,5.5044,5.5097,5.5117,5.5126,5.5136,5.5113,5.5201,5.521,5.5218,5.5246,5.5257,5.5123,5.5123,5.5122,5.5122,0,5.4978,5.5008,5.5039,5.5059,5.5075,5.5112,5.5104,5.5122,5.511,5.5107,5.515,5.5155,5.5177,5.5189,5.5177,5.524,5.5228,5.5204,5.5166,5.5234,5.526,5.5271,5.5128,5.5127,5.5126,5.5125,0,0,5.5084,5.5097,5.5109,5.5118,5.513,5.5153,5.5189,5.5212,5.5228,5.5241,5.5271,5.5306,5.5285,5.5296,5.5285,5.5312,5.5377,5.5285,5.5285,5.5302,5.5448,5.5467,5.548,5.5364,5.5366,5.5367,5.5448,0,5.5161,5.5224,5.5213,5.5274,5.5302,5.5276,5.5307,5.5318,5.5317,5.534,5.5338,5.5364,5.5333,5.534,5.5365,5.5364,5.5406,5.5358,5.5391,5.5393,5.539,5.5493,5.5512,5.5588,5.5458,5.546,5.5461,0,5.5259,5.5278,5.5343,5.5352,5.5363,5.5392,5.5413,5.5435,5.5447,5.5444,5.5457,5.5441,5.5477,5.5438,5.5487,5.5454,5.5467,5.5469,5.5471,5.5474,5.5431,5.55,5.5612,5.5624,5.5477,5.5476,5.5474,0,5.5331,5.5373,5.5417,5.5426,5.5437,5.5458,5.5464,5.5473,5.5488,5.5506,5.5516,5.5537,5.5549,5.5565,5.5555,5.5528,5.5606,5.5566,5.5605,5.5605,5.5623,5.5622,5.574,5.563,5.563,5.563,5.563,0,5.5419,5.546,5.545,5.5478,5.5522,5.5509,5.5554,5.5556,5.5565,5.5592,5.557,5.5595,5.5581,5.5605,5.5597,5.5639,5.5644,5.5643,5.5641,5.5646,5.5646,5.5654,5.5649,5.5633,5.5632,5.5632,5.5631,0,5.5507,5.5503,5.5549,5.5557,5.556,5.5593,5.5599,5.5624,5.5621,5.5656,5.5663,5.5659,5.5687,5.5679,5.5708,5.5703,5.5757,5.5747,5.5753,5.5751,5.5791,5.5788,5.5918,5.5935,5.5814,5.5815,5.5816,0,5.5564,5.5595,5.5606,5.5624,5.5631,5.5659,5.5675,5.5663,5.568,5.5696,5.572,5.5746,5.5766,5.5812,5.5811,5.5833,5.5825,5.5869,5.5828,5.5832,5.5826,5.5825,5.5829,5.5877,5.5879,5.588,5.5881,0,5.5666,5.5662,5.5686,5.571,5.573,5.5747,5.5763,5.5778,5.5767,5.5787,5.5816,5.5832,5.5863,5.5889,5.591,5.5915,5.5897,5.5894,5.5904,5.591,5.5913,5.5913,5.5777,5.5891,5.589,5.5889,5.5889,5.5888,5.574,5.5767,5.578,5.5808,5.5819,5.5834,5.5859,5.586,5.5884,5.591,5.5901,5.5934,5.5945,5.5972,5.5979,5.6005,5.5988,5.6003,5.6006,5.6011,5.6016,5.5908,5.6008,5.6008,5.6008,5.6008,5.6007,0,5.5842,5.5849,5.5875,5.5898,5.592,5.5902,5.5918,5.5938,5.5968,5.598,5.6001,5.6035,5.606,5.6062,5.6086,5.6106,5.6099,5.6113,5.6112,5.6114,5.6029,5.6019,5.6119,5.6119,5.6119,5.6119,5.6119,5.6119,5.5897,5.5942,5.5941,5.5991,5.5997,5.6031,5.6042,5.6056,5.6066,5.6105,5.6127,5.6128,5.6137,5.6161,5.6184,5.6184,5.6194,5.6212,5.6209,5.613,5.6119,5.6109,5.6098,5.6214,5.6214,5.6291,5.6292,5.6292]}]]